Year,Month,Day,Hour,Minute,Value (Times are PST for temperature in C)
2007,10,11,00,00,9.70
2007,10,11,00,01,9.70
2007,10,11,00,02,9.70
2007,10,11,00,03,9.60
2007,10,11,00,04,9.60
2007,10,11,00,05,9.60
2007,10,11,00,06,9.60
2007,10,11,00,07,9.50
2007,10,11,00,08,9.50
2007,10,11,00,09,9.40
2007,10,11,00,10,9.40
2007,10,11,00,11,9.40
2007,10,11,00,12,9.40
2007,10,11,00,13,9.30
2007,10,11,00,14,9.30
2007,10,11,00,15,9.30
2007,10,11,00,16,9.30
2007,10,11,00,17,9.30
2007,10,11,00,18,9.30
2007,10,11,00,19,9.20
2007,10,11,00,20,9.20
2007,10,11,00,21,9.20
2007,10,11,00,22,9.30
2007,10,11,00,23,9.30
2007,10,11,00,24,9.30
2007,10,11,00,25,9.30
2007,10,11,00,26,9.30
2007,10,11,00,27,9.30
2007,10,11,00,28,9.30
2007,10,11,00,29,9.30
2007,10,11,00,30,9.30
2007,10,11,00,31,9.30
2007,10,11,00,32,9.30
2007,10,11,00,33,9.30
2007,10,11,00,34,9.30
2007,10,11,00,35,9.20
2007,10,11,00,36,9.20
2007,10,11,00,37,9.20
2007,10,11,00,38,9.20
2007,10,11,00,39,9.30
2007,10,11,00,40,9.30
2007,10,11,00,41,9.30
2007,10,11,00,42,9.30
2007,10,11,00,43,9.30
2007,10,11,00,44,9.30
2007,10,11,00,45,9.30
2007,10,11,00,46,9.30
2007,10,11,00,47,9.30
2007,10,11,00,48,9.30
2007,10,11,00,49,9.30
2007,10,11,00,50,9.30
2007,10,11,00,51,9.30
2007,10,11,00,52,9.30
2007,10,11,00,53,9.30
2007,10,11,00,54,9.30
2007,10,11,00,55,9.30
2007,10,11,00,56,9.30
2007,10,11,00,57,9.20
2007,10,11,00,58,9.20
2007,10,11,00,59,9.20
2007,10,11,01,00,9.20
2007,10,11,01,01,9.20
2007,10,11,01,02,9.20
2007,10,11,01,03,9.20
2007,10,11,01,04,9.20
2007,10,11,01,05,9.20
2007,10,11,01,06,9.20
2007,10,11,01,07,9.20
2007,10,11,01,08,9.20
2007,10,11,01,09,9.20
2007,10,11,01,10,9.20
2007,10,11,01,11,9.20
2007,10,11,01,12,9.20
2007,10,11,01,13,9.20
2007,10,11,01,14,9.20
2007,10,11,01,15,9.20
2007,10,11,01,16,9.20
2007,10,11,01,17,9.20
2007,10,11,01,18,9.20
2007,10,11,01,19,9.20
2007,10,11,01,20,9.20
2007,10,11,01,21,9.20
2007,10,11,01,22,9.20
2007,10,11,01,23,9.20
2007,10,11,01,24,9.20
2007,10,11,01,25,9.20
2007,10,11,01,26,9.20
2007,10,11,01,27,9.20
2007,10,11,01,28,9.20
2007,10,11,01,29,9.20
2007,10,11,01,30,9.20
2007,10,11,01,31,9.30
2007,10,11,01,32,9.30
2007,10,11,01,33,9.30
2007,10,11,01,34,9.30
2007,10,11,01,35,9.30
2007,10,11,01,36,9.40
2007,10,11,01,37,9.50
2007,10,11,01,38,9.60
2007,10,11,01,39,9.60
2007,10,11,01,40,9.60
2007,10,11,01,41,9.70
2007,10,11,01,42,9.70
2007,10,11,01,43,9.70
2007,10,11,01,44,9.70
2007,10,11,01,45,9.70
2007,10,11,01,46,9.70
2007,10,11,01,47,9.70
2007,10,11,01,48,9.70
2007,10,11,01,49,9.70
2007,10,11,01,50,9.70
2007,10,11,01,51,9.70
2007,10,11,01,52,9.70
2007,10,11,01,53,9.60
2007,10,11,01,54,9.60
2007,10,11,01,55,9.60
2007,10,11,01,56,9.60
2007,10,11,01,57,9.60
2007,10,11,01,58,9.50
2007,10,11,01,59,9.50
2007,10,11,02,00,9.50
2007,10,11,02,01,9.50
2007,10,11,02,02,9.40
2007,10,11,02,03,9.40
2007,10,11,02,04,9.40
2007,10,11,02,05,9.30
2007,10,11,02,06,9.30
2007,10,11,02,07,9.30
2007,10,11,02,08,9.30
2007,10,11,02,09,9.20
2007,10,11,02,10,9.20
2007,10,11,02,11,9.20
2007,10,11,02,12,9.20
2007,10,11,02,13,9.10
2007,10,11,02,14,9.10
2007,10,11,02,15,9.10
2007,10,11,02,16,9.10
2007,10,11,02,17,9.00
2007,10,11,02,18,9.00
2007,10,11,02,19,9.00
2007,10,11,02,20,9.00
2007,10,11,02,21,8.90
2007,10,11,02,22,8.90
2007,10,11,02,23,8.90
2007,10,11,02,24,8.90
2007,10,11,02,25,8.80
2007,10,11,02,26,8.80
2007,10,11,02,27,8.80
2007,10,11,02,28,8.80
2007,10,11,02,29,8.80
2007,10,11,02,30,8.80
2007,10,11,02,31,8.70
2007,10,11,02,32,8.70
2007,10,11,02,33,8.70
2007,10,11,02,34,8.70
2007,10,11,02,35,8.70
2007,10,11,02,36,8.60
2007,10,11,02,37,8.60
2007,10,11,02,38,8.60
2007,10,11,02,39,8.60
2007,10,11,02,40,8.60
2007,10,11,02,41,8.50
2007,10,11,02,42,8.50
2007,10,11,02,43,8.40
2007,10,11,02,44,8.40
2007,10,11,02,45,8.40
2007,10,11,02,46,8.40
2007,10,11,02,47,8.40
2007,10,11,02,48,8.40
2007,10,11,02,49,8.30
2007,10,11,02,50,8.30
2007,10,11,02,51,8.30
2007,10,11,02,52,8.30
2007,10,11,02,53,8.30
2007,10,11,02,54,8.20
2007,10,11,02,55,8.20
2007,10,11,02,56,8.20
2007,10,11,02,57,8.20
2007,10,11,02,58,8.20
2007,10,11,02,59,8.20
2007,10,11,03,00,8.20
2007,10,11,03,01,8.20
2007,10,11,03,02,8.20
2007,10,11,03,03,8.20
2007,10,11,03,04,8.20
2007,10,11,03,05,8.20
2007,10,11,03,06,8.20
2007,10,11,03,07,8.10
2007,10,11,03,08,8.10
2007,10,11,03,09,8.10
2007,10,11,03,10,8.10
2007,10,11,03,11,8.10
2007,10,11,03,12,8.10
2007,10,11,03,13,8.10
2007,10,11,03,14,8.10
2007,10,11,03,15,8.10
2007,10,11,03,16,8.10
2007,10,11,03,17,8.00
2007,10,11,03,18,8.00
2007,10,11,03,19,8.00
2007,10,11,03,20,8.00
2007,10,11,03,21,7.90
2007,10,11,03,22,7.90
2007,10,11,03,23,7.90
2007,10,11,03,24,7.90
2007,10,11,03,25,7.90
2007,10,11,03,26,7.90
2007,10,11,03,27,7.90
2007,10,11,03,28,7.80
2007,10,11,03,29,7.80
2007,10,11,03,30,7.80
2007,10,11,03,31,7.80
2007,10,11,03,32,7.80
2007,10,11,03,33,7.80
2007,10,11,03,34,7.80
2007,10,11,03,35,7.80
2007,10,11,03,36,7.80
2007,10,11,03,37,7.80
2007,10,11,03,38,7.70
2007,10,11,03,39,7.70
2007,10,11,03,40,7.70
2007,10,11,03,41,7.70
2007,10,11,03,42,7.70
2007,10,11,03,43,7.70
2007,10,11,03,44,7.70
2007,10,11,03,45,7.70
2007,10,11,03,46,7.70
2007,10,11,03,47,7.60
2007,10,11,03,48,7.60
2007,10,11,03,49,7.60
2007,10,11,03,50,7.60
2007,10,11,03,51,7.60
2007,10,11,03,52,7.60
2007,10,11,03,53,7.60
2007,10,11,03,54,7.60
2007,10,11,03,55,7.60
2007,10,11,03,56,7.60
2007,10,11,03,57,7.60
2007,10,11,03,58,7.60
2007,10,11,03,59,7.60
2007,10,11,04,00,7.60
2007,10,11,04,01,7.50
2007,10,11,04,02,7.50
2007,10,11,04,03,7.50
2007,10,11,04,04,7.40
2007,10,11,04,05,7.40
2007,10,11,04,06,7.40
2007,10,11,04,07,7.40
2007,10,11,04,08,7.40
2007,10,11,04,09,7.40
2007,10,11,04,10,7.40
2007,10,11,04,11,7.30
2007,10,11,04,12,7.30
2007,10,11,04,13,7.30
2007,10,11,04,14,7.30
2007,10,11,04,15,7.20
2007,10,11,04,16,7.20
2007,10,11,04,17,7.20
2007,10,11,04,18,7.20
2007,10,11,04,19,7.20
2007,10,11,04,20,7.20
2007,10,11,04,21,7.20
2007,10,11,04,22,7.20
2007,10,11,04,23,7.10
2007,10,11,04,24,7.10
2007,10,11,04,25,7.10
2007,10,11,04,26,7.10
2007,10,11,04,27,7.10
2007,10,11,04,28,7.00
2007,10,11,04,29,7.00
2007,10,11,04,30,7.00
2007,10,11,04,31,6.90
2007,10,11,04,32,6.90
2007,10,11,04,33,6.90
2007,10,11,04,34,6.90
2007,10,11,04,35,6.90
2007,10,11,04,36,6.90
2007,10,11,04,37,6.90
2007,10,11,04,38,6.80
2007,10,11,04,39,6.80
2007,10,11,04,40,6.80
2007,10,11,04,41,6.80
2007,10,11,04,42,6.80
2007,10,11,04,43,6.80
2007,10,11,04,44,6.80
2007,10,11,04,45,6.80
2007,10,11,04,46,6.80
2007,10,11,04,47,6.80
2007,10,11,04,48,6.80
2007,10,11,04,49,6.70
2007,10,11,04,50,6.70
2007,10,11,04,51,6.70
2007,10,11,04,52,6.70
2007,10,11,04,53,6.70
2007,10,11,04,54,6.70
2007,10,11,04,55,6.70
2007,10,11,04,56,6.70
2007,10,11,04,57,6.70
2007,10,11,04,58,6.70
2007,10,11,04,59,6.70
2007,10,11,05,00,6.70
2007,10,11,05,01,6.60
2007,10,11,05,02,6.60
2007,10,11,05,03,6.60
2007,10,11,05,04,6.60
2007,10,11,05,05,6.60
2007,10,11,05,06,6.60
2007,10,11,05,07,6.60
2007,10,11,05,08,6.60
2007,10,11,05,09,6.60
2007,10,11,05,10,6.60
2007,10,11,05,11,6.60
2007,10,11,05,12,6.60
2007,10,11,05,13,6.60
2007,10,11,05,14,6.60
2007,10,11,05,15,6.60
2007,10,11,05,16,6.60
2007,10,11,05,17,6.60
2007,10,11,05,18,6.60
2007,10,11,05,19,6.60
2007,10,11,05,20,6.70
2007,10,11,05,21,6.70
2007,10,11,05,22,6.70
2007,10,11,05,23,6.70
2007,10,11,05,24,6.70
2007,10,11,05,25,6.70
2007,10,11,05,26,6.80
2007,10,11,05,27,6.80
2007,10,11,05,28,6.80
2007,10,11,05,29,6.80
2007,10,11,05,30,6.80
2007,10,11,05,31,6.80
2007,10,11,05,32,6.90
2007,10,11,05,33,6.90
2007,10,11,05,34,6.90
2007,10,11,05,35,6.90
2007,10,11,05,36,6.90
2007,10,11,05,37,7.00
2007,10,11,05,38,7.00
2007,10,11,05,39,7.00
2007,10,11,05,40,7.00
2007,10,11,05,41,7.10
2007,10,11,05,42,7.10
2007,10,11,05,43,7.10
2007,10,11,05,44,7.10
2007,10,11,05,45,7.10
2007,10,11,05,46,7.20
2007,10,11,05,47,7.20
2007,10,11,05,48,7.20
2007,10,11,05,49,7.20
2007,10,11,05,50,7.20
2007,10,11,05,51,7.20
2007,10,11,05,52,7.20
2007,10,11,05,53,7.20
2007,10,11,05,54,7.30
2007,10,11,05,55,7.30
2007,10,11,05,56,7.30
2007,10,11,05,57,7.30
2007,10,11,05,58,7.30
2007,10,11,05,59,7.40
2007,10,11,06,00,7.40
2007,10,11,06,01,7.50
2007,10,11,06,02,7.50
2007,10,11,06,03,7.60
2007,10,11,06,04,7.60
2007,10,11,06,05,7.70
2007,10,11,06,06,7.80
2007,10,11,06,07,7.80
2007,10,11,06,08,7.90
2007,10,11,06,09,7.90
2007,10,11,06,10,7.90
2007,10,11,06,11,7.90
2007,10,11,06,12,7.90
2007,10,11,06,13,8.00
2007,10,11,06,14,8.00
2007,10,11,06,15,8.10
2007,10,11,06,16,8.10
2007,10,11,06,17,8.10
2007,10,11,06,18,8.10
2007,10,11,06,19,8.10
2007,10,11,06,20,8.10
2007,10,11,06,21,8.10
2007,10,11,06,22,8.10
2007,10,11,06,23,8.20
2007,10,11,06,24,8.20
2007,10,11,06,25,8.20
2007,10,11,06,26,8.20
2007,10,11,06,27,8.20
2007,10,11,06,28,8.30
2007,10,11,06,29,8.30
2007,10,11,06,30,8.30
2007,10,11,06,31,8.30
2007,10,11,06,32,8.30
2007,10,11,06,33,8.40
2007,10,11,06,34,8.40
2007,10,11,06,35,8.40
2007,10,11,06,36,8.50
2007,10,11,06,37,8.50
2007,10,11,06,38,8.60
2007,10,11,06,39,8.60
2007,10,11,06,40,8.60
2007,10,11,06,41,8.60
2007,10,11,06,42,8.60
2007,10,11,06,43,8.60
2007,10,11,06,44,8.70
2007,10,11,06,45,8.70
2007,10,11,06,46,8.70
2007,10,11,06,47,8.70
2007,10,11,06,48,8.70
2007,10,11,06,49,8.70
2007,10,11,06,50,8.70
2007,10,11,06,51,8.70
2007,10,11,06,52,8.70
2007,10,11,06,53,8.70
2007,10,11,06,54,8.70
2007,10,11,06,55,8.70
2007,10,11,06,56,8.70
2007,10,11,06,57,8.80
2007,10,11,06,58,8.70
2007,10,11,06,59,8.70
2007,10,11,07,00,8.80
2007,10,11,07,01,8.80
2007,10,11,07,02,8.80
2007,10,11,07,03,8.80
2007,10,11,07,04,8.80
2007,10,11,07,05,8.80
2007,10,11,07,06,8.80
2007,10,11,07,07,8.80
2007,10,11,07,08,8.80
2007,10,11,07,09,8.80
2007,10,11,07,10,8.80
2007,10,11,07,11,8.80
2007,10,11,07,12,8.80
2007,10,11,07,13,8.80
2007,10,11,07,14,8.80
2007,10,11,07,15,8.80
2007,10,11,07,16,8.90
2007,10,11,07,17,8.90
2007,10,11,07,18,8.90
2007,10,11,07,19,8.90
2007,10,11,07,20,8.90
2007,10,11,07,21,8.90
2007,10,11,07,22,8.90
2007,10,11,07,23,8.90
2007,10,11,07,24,8.90
2007,10,11,07,25,8.90
2007,10,11,07,26,8.90
2007,10,11,07,27,8.90
2007,10,11,07,28,9.00
2007,10,11,07,29,9.00
2007,10,11,07,30,9.00
2007,10,11,07,31,9.00
2007,10,11,07,32,9.00
2007,10,11,07,33,9.00
2007,10,11,07,34,9.10
2007,10,11,07,35,9.10
2007,10,11,07,36,9.10
2007,10,11,07,37,9.10
2007,10,11,07,38,9.10
2007,10,11,07,39,9.10
2007,10,11,07,40,9.10
2007,10,11,07,41,9.00
2007,10,11,07,42,9.00
2007,10,11,07,43,9.00
2007,10,11,07,44,9.00
2007,10,11,07,45,9.00
2007,10,11,07,46,9.00
2007,10,11,07,47,9.00
2007,10,11,07,48,9.00
2007,10,11,07,49,9.00
2007,10,11,07,50,9.00
2007,10,11,07,51,9.00
2007,10,11,07,52,9.00
2007,10,11,07,53,9.00
2007,10,11,07,54,9.00
2007,10,11,07,55,9.00
2007,10,11,07,56,9.00
2007,10,11,07,57,9.00
2007,10,11,07,58,8.90
2007,10,11,07,59,8.90
2007,10,11,08,00,8.90
2007,10,11,08,01,8.90
2007,10,11,08,02,8.90
2007,10,11,08,03,8.90
2007,10,11,08,04,8.90
2007,10,11,08,05,8.90
2007,10,11,08,06,8.90
2007,10,11,08,07,8.90
2007,10,11,08,08,8.90
2007,10,11,08,09,8.90
2007,10,11,08,10,8.90
2007,10,11,08,11,8.90
2007,10,11,08,12,8.90
2007,10,11,08,13,8.90
2007,10,11,08,14,8.90
2007,10,11,08,15,8.90
2007,10,11,08,16,8.90
2007,10,11,08,17,8.90
2007,10,11,08,18,8.90
2007,10,11,08,19,8.90
2007,10,11,08,20,8.90
2007,10,11,08,21,8.90
2007,10,11,08,22,8.90
2007,10,11,08,23,8.90
2007,10,11,08,24,8.90
2007,10,11,08,25,8.90
2007,10,11,08,26,8.90
2007,10,11,08,27,8.90
2007,10,11,08,28,8.90
2007,10,11,08,29,8.90
2007,10,11,08,30,9.00
2007,10,11,08,31,9.00
2007,10,11,08,32,9.00
2007,10,11,08,33,9.00
2007,10,11,08,34,9.00
2007,10,11,08,35,9.10
2007,10,11,08,36,9.10
2007,10,11,08,37,9.10
2007,10,11,08,38,9.10
2007,10,11,08,39,9.10
2007,10,11,08,40,9.10
2007,10,11,08,41,9.20
2007,10,11,08,42,9.20
2007,10,11,08,43,9.20
2007,10,11,08,44,9.20
2007,10,11,08,45,9.20
2007,10,11,08,46,9.20
2007,10,11,08,47,9.30
2007,10,11,08,48,9.30
2007,10,11,08,49,9.30
2007,10,11,08,50,9.30
2007,10,11,08,51,9.40
2007,10,11,08,52,9.40
2007,10,11,08,53,9.40
2007,10,11,08,54,9.50
2007,10,11,08,55,9.50
2007,10,11,08,56,9.60
2007,10,11,08,57,9.60
2007,10,11,08,58,9.60
2007,10,11,08,59,9.60
2007,10,11,09,00,9.60
2007,10,11,09,01,9.60
2007,10,11,09,02,9.60
2007,10,11,09,03,9.70
2007,10,11,09,04,9.70
2007,10,11,09,05,9.70
2007,10,11,09,06,9.70
2007,10,11,09,07,9.70
2007,10,11,09,08,9.80
2007,10,11,09,09,9.80
2007,10,11,09,10,9.80
2007,10,11,09,11,9.80
2007,10,11,09,12,9.80
2007,10,11,09,13,9.80
2007,10,11,09,14,9.90
2007,10,11,09,15,9.90
2007,10,11,09,16,9.90
2007,10,11,09,17,9.90
2007,10,11,09,18,10.00
2007,10,11,09,19,10.00
2007,10,11,09,20,10.00
2007,10,11,09,21,10.00
2007,10,11,09,22,10.10
2007,10,11,09,23,10.10
2007,10,11,09,24,10.10
2007,10,11,09,25,10.10
2007,10,11,09,26,10.10
2007,10,11,09,27,10.10
2007,10,11,09,28,10.20
2007,10,11,09,29,10.20
2007,10,11,09,30,10.20
2007,10,11,09,31,10.20
2007,10,11,09,32,10.20
2007,10,11,09,33,10.30
2007,10,11,09,34,10.30
2007,10,11,09,35,10.30
2007,10,11,09,36,10.30
2007,10,11,09,37,10.30
2007,10,11,09,38,10.30
2007,10,11,09,39,10.30
2007,10,11,09,40,10.40
2007,10,11,09,41,10.40
2007,10,11,09,42,10.40
2007,10,11,09,43,10.40
2007,10,11,09,44,10.40
2007,10,11,09,45,10.50
2007,10,11,09,46,10.50
2007,10,11,09,47,10.50
2007,10,11,09,48,10.50
2007,10,11,09,49,10.50
2007,10,11,09,50,10.60
2007,10,11,09,51,10.60
2007,10,11,09,52,10.60
2007,10,11,09,53,10.60
2007,10,11,09,54,10.60
2007,10,11,09,55,10.60
2007,10,11,09,56,10.60
2007,10,11,09,57,10.60
2007,10,11,09,58,10.60
2007,10,11,09,59,10.60
2007,10,11,10,00,10.60
2007,10,11,10,01,10.60
2007,10,11,10,02,10.60
2007,10,11,10,03,10.60
2007,10,11,10,04,10.60
2007,10,11,10,05,10.60
2007,10,11,10,06,10.60
2007,10,11,10,07,10.60
2007,10,11,10,08,10.60
2007,10,11,10,09,10.60
2007,10,11,10,10,10.60
2007,10,11,10,11,10.70
2007,10,11,10,12,10.70
2007,10,11,10,13,10.70
2007,10,11,10,14,10.80
2007,10,11,10,15,10.80
2007,10,11,10,16,10.80
2007,10,11,10,17,10.80
2007,10,11,10,18,10.80
2007,10,11,10,19,10.80
2007,10,11,10,20,10.90
2007,10,11,10,21,10.90
2007,10,11,10,22,10.90
2007,10,11,10,23,10.90
2007,10,11,10,24,10.90
2007,10,11,10,25,11.00
2007,10,11,10,26,11.00
2007,10,11,10,27,11.00
2007,10,11,10,28,11.10
2007,10,11,10,29,11.10
2007,10,11,10,30,11.10
2007,10,11,10,31,11.10
2007,10,11,10,32,11.10
2007,10,11,10,33,11.10
2007,10,11,10,34,11.10
2007,10,11,10,35,11.10
2007,10,11,10,36,11.10
2007,10,11,10,37,11.10
2007,10,11,10,38,11.10
2007,10,11,10,39,11.10
2007,10,11,10,40,11.20
2007,10,11,10,41,11.20
2007,10,11,10,42,11.20
2007,10,11,10,43,11.20
2007,10,11,10,44,11.30
2007,10,11,10,45,11.30
2007,10,11,10,46,11.30
2007,10,11,10,47,11.40
2007,10,11,10,48,11.40
2007,10,11,10,49,11.40
2007,10,11,10,50,11.50
2007,10,11,10,51,11.60
2007,10,11,10,52,11.60
2007,10,11,10,53,11.70
2007,10,11,10,54,11.80
2007,10,11,10,55,11.90
2007,10,11,10,56,12.00
2007,10,11,10,57,12.10
2007,10,11,10,58,12.10
2007,10,11,10,59,12.00
2007,10,11,11,00,11.90
2007,10,11,11,01,11.90
2007,10,11,11,02,11.90
2007,10,11,11,03,11.90
2007,10,11,11,04,12.00
2007,10,11,11,05,12.00
2007,10,11,11,06,12.10
2007,10,11,11,07,12.20
2007,10,11,11,08,12.20
2007,10,11,11,09,12.20
2007,10,11,11,10,12.20
2007,10,11,11,11,12.20
2007,10,11,11,12,12.20
2007,10,11,11,13,12.20
2007,10,11,11,14,12.20
2007,10,11,11,15,12.20
2007,10,11,11,16,12.30
2007,10,11,11,17,12.20
2007,10,11,11,18,12.20
2007,10,11,11,19,12.20
2007,10,11,11,20,12.30
2007,10,11,11,21,12.30
2007,10,11,11,22,12.30
2007,10,11,11,23,12.30
2007,10,11,11,24,12.30
2007,10,11,11,25,12.20
2007,10,11,11,26,12.20
2007,10,11,11,27,12.20
2007,10,11,11,28,12.20
2007,10,11,11,29,12.20
2007,10,11,11,30,12.20
2007,10,11,11,31,12.20
2007,10,11,11,32,12.20
2007,10,11,11,33,12.20
2007,10,11,11,34,12.20
2007,10,11,11,35,12.30
2007,10,11,11,36,12.30
2007,10,11,11,37,12.30
2007,10,11,11,38,12.30
2007,10,11,11,39,12.30
2007,10,11,11,40,12.30
2007,10,11,11,41,12.30
2007,10,11,11,42,12.30
2007,10,11,11,43,12.30
2007,10,11,11,44,12.30
2007,10,11,11,45,12.30
2007,10,11,11,46,12.30
2007,10,11,11,47,12.30
2007,10,11,11,48,12.30
2007,10,11,11,49,12.40
2007,10,11,11,50,12.40
2007,10,11,11,51,12.40
2007,10,11,11,52,12.40
2007,10,11,11,53,12.50
2007,10,11,11,54,12.50
2007,10,11,11,55,12.50
2007,10,11,11,56,12.50
2007,10,11,11,57,12.50
2007,10,11,11,58,12.50
2007,10,11,11,59,12.50
2007,10,11,12,00,12.50
2007,10,11,12,01,12.60
2007,10,11,12,02,12.60
2007,10,11,12,03,12.60
2007,10,11,12,04,12.60
2007,10,11,12,05,12.60
2007,10,11,12,06,12.60
2007,10,11,12,07,12.60
2007,10,11,12,08,12.60
2007,10,11,12,09,12.60
2007,10,11,12,10,12.60
2007,10,11,12,11,12.60
2007,10,11,12,12,12.60
2007,10,11,12,13,12.60
2007,10,11,12,14,12.60
2007,10,11,12,15,12.70
2007,10,11,12,16,12.70
2007,10,11,12,17,12.70
2007,10,11,12,18,12.70
2007,10,11,12,19,12.70
2007,10,11,12,20,12.70
2007,10,11,12,21,12.70
2007,10,11,12,22,12.70
2007,10,11,12,23,12.70
2007,10,11,12,24,12.60
2007,10,11,12,25,12.60
2007,10,11,12,26,12.60
2007,10,11,12,27,12.60
2007,10,11,12,28,12.60
2007,10,11,12,29,12.60
2007,10,11,12,30,12.60
2007,10,11,12,31,12.60
2007,10,11,12,32,12.70
2007,10,11,12,33,12.70
2007,10,11,12,34,12.70
2007,10,11,12,35,12.80
2007,10,11,12,36,12.80
2007,10,11,12,37,12.80
2007,10,11,12,38,12.80
2007,10,11,12,39,12.80
2007,10,11,12,40,12.80
2007,10,11,12,41,12.80
2007,10,11,12,42,12.80
2007,10,11,12,43,12.80
2007,10,11,12,44,12.80
2007,10,11,12,45,12.80
2007,10,11,12,46,12.80
2007,10,11,12,47,12.80
2007,10,11,12,48,12.80
2007,10,11,12,49,12.80
2007,10,11,12,50,12.80
2007,10,11,12,51,12.80
2007,10,11,12,52,12.80
2007,10,11,12,53,12.80
2007,10,11,12,54,12.80
2007,10,11,12,55,12.80
2007,10,11,12,56,12.80
2007,10,11,12,57,12.80
2007,10,11,12,58,12.80
2007,10,11,12,59,12.80
2007,10,11,13,00,12.80
2007,10,11,13,01,12.90
2007,10,11,13,02,12.90
2007,10,11,13,03,12.90
2007,10,11,13,04,12.90
2007,10,11,13,05,13.00
2007,10,11,13,06,13.00
2007,10,11,13,07,13.00
2007,10,11,13,08,12.90
2007,10,11,13,09,12.90
2007,10,11,13,10,12.90
2007,10,11,13,11,12.90
2007,10,11,13,12,12.90
2007,10,11,13,13,12.90
2007,10,11,13,14,12.90
2007,10,11,13,15,12.90
2007,10,11,13,16,12.80
2007,10,11,13,17,12.80
2007,10,11,13,18,12.80
2007,10,11,13,19,12.80
2007,10,11,13,20,12.80
2007,10,11,13,21,12.80
2007,10,11,13,22,12.70
2007,10,11,13,23,12.70
2007,10,11,13,24,12.70
2007,10,11,13,25,12.70
2007,10,11,13,26,12.70
2007,10,11,13,27,12.70
2007,10,11,13,28,12.80
2007,10,11,13,29,12.80
2007,10,11,13,30,12.80
2007,10,11,13,31,12.90
2007,10,11,13,32,12.90
2007,10,11,13,33,13.00
2007,10,11,13,34,13.00
2007,10,11,13,35,13.10
2007,10,11,13,36,13.10
2007,10,11,13,37,13.10
2007,10,11,13,38,13.10
2007,10,11,13,39,13.10
2007,10,11,13,40,13.20
2007,10,11,13,41,13.20
2007,10,11,13,42,13.20
2007,10,11,13,43,13.20
2007,10,11,13,44,13.30
2007,10,11,13,45,13.30
2007,10,11,13,46,13.20
2007,10,11,13,47,13.20
2007,10,11,13,48,13.20
2007,10,11,13,49,13.20
2007,10,11,13,50,13.20
2007,10,11,13,51,13.20
2007,10,11,13,52,13.20
2007,10,11,13,53,13.20
2007,10,11,13,54,13.30
2007,10,11,13,55,13.30
2007,10,11,13,56,13.30
2007,10,11,13,57,13.30
2007,10,11,13,58,13.30
2007,10,11,13,59,13.30
2007,10,11,14,00,13.20
2007,10,11,14,01,13.20
2007,10,11,14,02,13.20
2007,10,11,14,03,13.20
2007,10,11,14,04,13.20
2007,10,11,14,05,13.20
2007,10,11,14,06,13.20
2007,10,11,14,07,13.20
2007,10,11,14,08,13.20
2007,10,11,14,09,13.20
2007,10,11,14,10,13.20
2007,10,11,14,11,13.20
2007,10,11,14,12,13.20
2007,10,11,14,13,13.20
2007,10,11,14,14,13.20
2007,10,11,14,15,13.30
2007,10,11,14,16,13.30
2007,10,11,14,17,13.30
2007,10,11,14,18,13.30
2007,10,11,14,19,13.40
2007,10,11,14,20,13.40
2007,10,11,14,21,13.40
2007,10,11,14,22,13.40
2007,10,11,14,23,13.40
2007,10,11,14,24,13.50
2007,10,11,14,25,13.60
2007,10,11,14,26,13.70
2007,10,11,14,27,13.70
2007,10,11,14,28,13.80
2007,10,11,14,29,13.80
2007,10,11,14,30,13.70
2007,10,11,14,31,13.70
2007,10,11,14,32,13.60
2007,10,11,14,33,13.50
2007,10,11,14,34,13.40
2007,10,11,14,35,13.40
2007,10,11,14,36,13.40
2007,10,11,14,37,13.40
2007,10,11,14,38,13.40
2007,10,11,14,39,13.40
2007,10,11,14,40,13.30
2007,10,11,14,41,13.30
2007,10,11,14,42,13.30
2007,10,11,14,43,13.30
2007,10,11,14,44,13.30
2007,10,11,14,45,13.30
2007,10,11,14,46,13.30
2007,10,11,14,47,13.40
2007,10,11,14,48,13.40
2007,10,11,14,49,13.50
2007,10,11,14,50,13.50
2007,10,11,14,51,13.60
2007,10,11,14,52,13.60
2007,10,11,14,53,13.60
2007,10,11,14,54,13.60
2007,10,11,14,55,13.60
2007,10,11,14,56,13.60
2007,10,11,14,57,13.60
2007,10,11,14,58,13.60
2007,10,11,14,59,13.60
2007,10,11,15,00,13.60
2007,10,11,15,01,13.60
2007,10,11,15,02,13.60
2007,10,11,15,03,13.60
2007,10,11,15,04,13.60
2007,10,11,15,05,13.60
2007,10,11,15,06,13.60
2007,10,11,15,07,13.60
2007,10,11,15,08,13.60
2007,10,11,15,09,13.60
2007,10,11,15,10,13.60
2007,10,11,15,11,13.60
2007,10,11,15,12,13.60
2007,10,11,15,13,13.70
2007,10,11,15,14,13.70
2007,10,11,15,15,13.60
2007,10,11,15,16,13.60
2007,10,11,15,17,13.60
2007,10,11,15,18,13.50
2007,10,11,15,19,13.50
2007,10,11,15,20,13.50
2007,10,11,15,21,13.40
2007,10,11,15,22,13.30
2007,10,11,15,23,13.30
2007,10,11,15,24,13.30
2007,10,11,15,25,13.30
2007,10,11,15,26,13.30
2007,10,11,15,27,13.30
2007,10,11,15,28,13.40
2007,10,11,15,29,13.40
2007,10,11,15,30,13.40
2007,10,11,15,31,13.40
2007,10,11,15,32,13.40
2007,10,11,15,33,13.40
2007,10,11,15,34,13.40
2007,10,11,15,35,13.40
2007,10,11,15,36,13.30
2007,10,11,15,37,13.30
2007,10,11,15,38,13.30
2007,10,11,15,39,13.30
2007,10,11,15,40,13.30
2007,10,11,15,41,13.30
2007,10,11,15,42,13.20
2007,10,11,15,43,13.20
2007,10,11,15,44,13.20
2007,10,11,15,45,13.20
2007,10,11,15,46,13.20
2007,10,11,15,47,13.20
2007,10,11,15,48,13.20
2007,10,11,15,49,13.20
2007,10,11,15,50,13.20
2007,10,11,15,51,13.20
2007,10,11,15,52,13.20
2007,10,11,15,53,13.20
2007,10,11,15,54,13.20
2007,10,11,15,55,13.20
2007,10,11,15,56,13.20
2007,10,11,15,57,13.20
2007,10,11,15,58,13.20
2007,10,11,15,59,13.20
2007,10,11,16,00,13.20
2007,10,11,16,01,13.20
2007,10,11,16,02,13.20
2007,10,11,16,03,13.20
2007,10,11,16,04,13.20
2007,10,11,16,05,13.20
2007,10,11,16,06,13.20
2007,10,11,16,07,13.20
2007,10,11,16,08,13.20
2007,10,11,16,09,13.20
2007,10,11,16,10,13.20
2007,10,11,16,11,13.20
2007,10,11,16,12,13.20
2007,10,11,16,13,13.20
2007,10,11,16,14,13.20
2007,10,11,16,15,13.20
2007,10,11,16,16,13.20
2007,10,11,16,17,13.30
2007,10,11,16,18,13.30
2007,10,11,16,19,13.30
2007,10,11,16,20,13.30
2007,10,11,16,21,13.30
2007,10,11,16,22,13.30
2007,10,11,16,23,13.30
2007,10,11,16,24,13.30
2007,10,11,16,25,13.30
2007,10,11,16,26,13.30
2007,10,11,16,27,13.30
2007,10,11,16,28,13.30
2007,10,11,16,29,13.30
2007,10,11,16,30,13.20
2007,10,11,16,31,13.20
2007,10,11,16,32,13.20
2007,10,11,16,33,13.30
2007,10,11,16,34,13.30
2007,10,11,16,35,13.30
2007,10,11,16,36,13.30
2007,10,11,16,37,13.30
2007,10,11,16,38,13.20
2007,10,11,16,39,13.20
2007,10,11,16,40,13.20
2007,10,11,16,41,13.20
2007,10,11,16,42,13.10
2007,10,11,16,43,13.10
2007,10,11,16,44,13.10
2007,10,11,16,45,13.10
2007,10,11,16,46,13.10
2007,10,11,16,47,13.10
2007,10,11,16,48,13.20
2007,10,11,16,49,13.20
2007,10,11,16,50,13.20
2007,10,11,16,51,13.20
2007,10,11,16,52,13.20
2007,10,11,16,53,13.20
2007,10,11,16,54,13.20
2007,10,11,16,55,13.20
2007,10,11,16,56,13.20
2007,10,11,16,57,13.20
2007,10,11,16,58,13.20
2007,10,11,16,59,13.20
2007,10,11,17,00,13.20
2007,10,11,17,01,13.20
2007,10,11,17,02,13.20
2007,10,11,17,03,13.20
2007,10,11,17,04,13.20
2007,10,11,17,05,13.20
2007,10,11,17,06,13.20
2007,10,11,17,07,13.10
2007,10,11,17,08,13.10
2007,10,11,17,09,13.10
2007,10,11,17,10,13.10
2007,10,11,17,11,13.00
2007,10,11,17,12,13.00
2007,10,11,17,13,13.00
2007,10,11,17,14,13.00
2007,10,11,17,15,13.00
2007,10,11,17,16,12.90
2007,10,11,17,17,12.90
2007,10,11,17,18,12.90
2007,10,11,17,19,12.90
2007,10,11,17,20,12.90
2007,10,11,17,21,12.90
2007,10,11,17,22,12.80
2007,10,11,17,23,12.80
2007,10,11,17,24,12.80
2007,10,11,17,25,12.80
2007,10,11,17,26,12.80
2007,10,11,17,27,12.80
2007,10,11,17,28,12.80
2007,10,11,17,29,12.80
2007,10,11,17,30,12.80
2007,10,11,17,31,12.80
2007,10,11,17,32,12.80
2007,10,11,17,33,12.80
2007,10,11,17,34,12.80
2007,10,11,17,35,12.80
2007,10,11,17,36,12.80
2007,10,11,17,37,12.80
2007,10,11,17,38,12.80
2007,10,11,17,39,12.80
2007,10,11,17,40,12.70
2007,10,11,17,41,12.70
2007,10,11,17,42,12.70
2007,10,11,17,43,12.70